SCP
0 0 0 0 0 0 0 0 0 0 0 0 0 0 0 0 0 0 0 0 0 0 0 0 0 0 0 0 0 0 0 0 0 0 0 0 0 0 0 0 0 0 0 0
0 0 0 0 0 0 0 0 0 0 0 0 0 0 0 0 0 0 0 0 0 0 0 0 0 0 0 0 0 0 0 0 0 0 0 0 0 0 0 0 0 0 0 0
0 0 0 0 0 0 0 0 0 0 0 0 0 0 0 0 0 0 0 0 0 0 0 0 0 0 0 0 0 0 0 0 0 0 0 0 0 0 0 0 0 0 0 0
0 0 0 0 0 0 0 0 0 0 0 0 0 0 0 0 0 0 0 0 0 0 0 0 0 -0 0 0 0 0 0 0 0 0 0 0 0 0 0 0 0 0 0 0
0 0 0 0 0 0 0 0 0 0 0 0 0 0 0 0 0 0 0 0 0 0 0 0 -0 -0 0 0 0 0 0 0 0 0 0 0 0 0 0 0 0 0 0 0
0 0 0 0 0 0 0 0 0 0 0 0 0 0 0 0 0 0 0 0 0 0 0 -0 -0 0 0 0 0 0 0 0 0 0 0 0 0 0 0 0 0 0 0 0
0 0 0 0 0 0 0 0 0 0 0 0 0 0 0 0 0 0 0 0 0 0 0 -0 -0 0 0 0 0 0 0 0 0 0 0 0 0 0 0 0 0 0 0 0
0 0 0 0 0 0 0 0 0 0 0 0 0 0 0 0 0 0 0 0 0 0 0 -0 -0 0 0 0 0 0 0 0 0 0 0 0 0 0 0 0 0 0 0 0
0 0 0 0 0 0 0 0 0 0 0 0 0 0 0 0 0 0 0 0 0 0 -0 -0 0 0 0 0 0 0 0 0 0 0 0 0 0 0 0 0 0 0 0 0
0 0 0 0 0 0 0 0 0 0 0 0 0 0 0 0 0 0 0 0 0 -0 -0 0 0 0 0 0 0 0 0 0 0 0 0 0 0 0 0 0 0 0 0 0
0 0 0 0 0 0 0 0 0 0 0 0 0 0 0 0 0 0 0 0 0 0 0 0 0 0 0 0 0 0 0 0 0 0 0 0 0 0 0 0 0 0 0 0
0 0 0 0 0 0 0 0 0 0 0 0 0 0 0 0 0 0 0 0 0 0 0 0 0 0 0 0 0 0 0 0 0 0 0 0 0 0 0 0 0 0 0 0
0 0 0 0 0 0 0 0 0 0 0 0 0 0 0 0 0 0 0 0 0 0 0 0 0 0 0 0 0 0 0 0 0 0 0 0 0 0 0 0 0 0 0 0
0 0 0 0 0 0 0 0 0 0 0 0 0 0 0 0 0 0 0 0 0 0 0 0 0 0 0 0 0 0 0 0 0 0 0 0 0 0 0 0 0 0 0 0
0 0 0 0 0 0 0 0 0 0 0 0 0 0 0 0 0 0 0 0 0 0 0 0 0 0 0 0 0 0 0 0 0 0 0 0 0 0 0 0 0 0 0 0
0 0 0 0 0 0 0 0 0 0 0 0 0 0 0 0 0 0 0 0 0 0 0 0 0 0 0 0 0 0 0 0 0 0 0 0 0 0 0 0 0 0 0 0
0 0 0 0 0 0 0 0 0 0 0 0 0 0 0 0 0 0 0 0 0 0 0 0 0 0 0 0 0 0 0 0 0 0 0 0 0 0 0 0 0 0 0 0
0 0 0 0 0 0 0 0 0 0 0 0 0 0 0 0 0 0 0 0 0 0 0 0 0 0 0 0 0 0 0 0 0 0 0 0 0 0 0 0 0 0 0 0
0 0 0 0 0 0 0 0 0 0 0 0 0 0 0 0 0 0 0 0 0 0 0 0 0 0 0 0 0 0 0 0 0 0 0 0 0 0 0 0 0 0 0 0
0 0 0 0 0 0 0 0 0 0 0 0 0 0 0 0 0 0 0 0 0 0 0 0 0 0 0 0 0 0 0 0 0 0 0 0 0 0 0 0 0 0 0 0
0 0 0 0 0 0 0 0 0 0 0 0 0 0 0 0 0 0 0 0 0 0 0 0 0 0 0 0 0 0 0 0 0 0 0 0 0 0 0 0 0 0 0 0
0 0 0 0 0 0 0 0 0 0 0 0 0 0 0 0 0 0 0 0 0 0 0 0 0 0 0 0 0 0 0 0 0 0 0 0 0 0 0 0 0 0 0 0
0 0 0 0 0 0 0 0 0 0 0 0 0 0 0 0 0 0 0 0 0 0 0 0 0 0 0 0 0 0 0 0 0 0 0 0 0 0 0 0 0 0 0 0
0 0 0 0 0 0 0 0 0 0 0 0 0 0 0 0 0 0 0 0 0 0 0 0 0 0 0 0 0 0 0 0 0 0 0 0 0 0 0 0 0 0 0 0
0 0 0 0 0 0 0 0 0 0 0 0 0 0 0 0 0 0 0 0 0 0 0 0 0 0 0 0 0 0 0 0 0 0 0 0 0 0 0 0 0 0 0 0
0 0 0 0 0 0 0 0 0 0 0 0 0 0 0 0 0 0 0 0 0 0 0 0 0 0 0 0 0 0 0 0 0 0 0 0 0 0 0 0 0 0 0 0
Wind_Speed
1 2 3 6 8 6 3 4 7 7 4 3 7 11 12 5 2 3 4 6 7 7 7 7 4 1 4 7 9 11 12 11 9 6 7 8 10 8 6 8 9 10 11 11
3 5 9 6 4 4 4 4 6 6 4 3 6 9 7 0 3 3 4 5 6 7 9 10 8 5 1 4 6 8 10 10 11 11 9 6 5 5 6 5 7 10 12 12
6 7 3 4 3 3 4 4 4 4 7 5 4 7 5 4 3 4 4 4 5 6 7 8 7 6 4 1 3 5 8 9 9 8 4 2 1 1 3 6 7 10 12 13
6 6 3 3 3 3 5 3 2 1 4 5 3 2 5 1 1 2 3 4 4 5 5 5 6 6 5 4 1 2 4 6 6 7 6 8 8 9 10 8 8 8 10 12
4 2 3 4 4 3 3 0 1 0 1 3 2 2 8 2 4 3 1 1 2 3 4 5 5 5 5 5 4 2 0 2 4 6 8 8 10 11 7 5 7 8 9 11
6 3 3 3 1 1 1 4 4 4 4 3 3 4 6 5 8 6 3 2 1 2 3 4 4 5 6 6 5 4 2 1 2 5 6 8 11 11 9 8 8 8 7 8
2 2 1 2 1 1 4 5 4 5 4 5 3 3 9 6 5 8 7 5 2 0 1 2 4 5 5 6 5 4 3 3 2 3 6 8 10 10 12 11 10 9 8 8
2 5 4 3 4 4 2 6 5 2 4 6 5 4 7 4 4 5 5 4 2 1 1 1 2 3 3 4 4 4 3 4 4 3 5 6 8 7 8 9 9 9 9 9
5 4 1 1 1 4 3 3 5 5 1 4 7 7 6 4 5 3 3 3 3 2 1 0 1 2 2 3 3 3 3 4 5 5 5 6 6 7 8 9 8 8 9 8
6 2 1 1 2 2 2 5 4 3 2 4 7 6 4 4 4 3 4 4 4 3 2 1 2 2 2 3 3 3 3 4 4 5 5 5 6 6 7 6 8 8 9 9
3 3 1 0 5 5 4 3 4 3 4 4 4 8 5 6 6 6 6 5 5 4 3 3 3 3 3 4 4 4 4 4 5 5 5 6 6 6 6 6 8 8 8 8
4 5 2 5 4 3 6 6 7 4 5 5 3 10 4 4 5 5 4 3 2 2 3 3 3 4 4 5 5 5 5 5 6 5 5 6 6 6 7 8 8 8 8 8
5 5 1 5 2 0 2 4 5 4 3 4 5 9 1 2 1 1 2 1 1 3 3 3 4 5 5 6 6 6 6 6 6 6 6 6 7 7 8 9 9 8 8 8
6 5 6 7 6 3 3 4 4 5 4 6 10 10 6 5 2 0 1 1 2 3 3 4 4 5 6 6 6 6 6 6 6 6 6 7 8 8 8 9 8 8 8 9
5 4 5 6 5 4 7 9 8 10 10 11 10 9 10 6 3 2 1 2 3 4 4 5 5 6 6 6 6 6 6 7 6 7 8 8 9 8 8 9 9 9 9 10
4 4 2 3 5 5 9 13 12 11 10 10 10 10 3 2 3 2 2 2 3 4 5 6 7 7 7 7 7 6 7 7 7 7 9 9 9 9 9 9 9 9 10 10
5 6 3 4 4 7 10 10 7 6 6 8 8 5 3 3 2 1 1 1 2 5 6 7 7 7 7 7 6 6 7 7 8 8 9 10 10 10 10 10 10 10 10 10
8 7 4 2 1 9 10 3 3 3 1 1 4 4 3 2 2 2 3 1 4 6 6 6 6 6 6 5 6 7 7 8 9 9 10 10 10 10 11 10 11 11 10 9
5 8 5 4 4 10 10 5 2 3 1 1 5 3 1 2 1 3 3 2 4 5 5 5 5 5 6 7 7 7 8 9 9 10 10 10 10 11 12 12 12 11 10 10
3 4 6 5 5 9 8 3 1 3 2 2 4 3 1 1 3 5 4 4 5 6 5 5 5 5 7 8 7 8 10 10 11 11 11 10 10 11 13 13 12 11 10 11
4 3 5 6 6 11 8 4 2 3 5 2 3 2 2 3 6 6 5 5 5 5 6 6 6 7 8 8 8 9 10 11 12 11 11 11 11 11 13 12 11 11 11 11
9 7 7 6 6 12 4 3 4 5 2 3 2 2 4 6 7 6 6 6 6 6 6 6 6 8 8 8 9 11 12 13 12 12 12 12 11 10 10 12 12 11 11 11
8 10 8 10 10 3 2 4 3 4 3 3 3 4 5 6 5 5 5 6 6 6 7 6 7 9 9 8 8 12 15 14 13 13 12 12 12 10 10 11 12 11 9 9
4 3 5 5 6 2 4 4 2 2 3 4 4 5 4 5 5 6 6 6 6 7 7 7 8 10 12 10 9 11 14 14 13 14 13 11 12 11 10 8 9 10 9 10
5 4 3 5 3 2 3 4 4 4 3 3 2 3 3 4 5 5 5 7 7 7 7 7 8 11 14 13 12 11 11 12 13 13 12 11 10 11 11 9 9 11 10 12
5 6 6 6 5 4 4 3 3 2 1 2 2 3 3 3 5 6 6 6 7 8 8 9 10 12 14 13 13 12 11 10 12 13 12 9 9 9 9 10 11 16 18 23
Wind_Direction
29 79 220 222 208 212 226 243 270 266 281 297 264 276 290 306 65 76 45 34 29 11 344 353 352 207 184 193 197 199 200 200 184 181 192 200 213 210 209 211 207 205 205 203
23 261 239 224 214 214 230 265 279 294 334 313 292 297 304 14 116 110 78 48 33 17 9 8 16 31 126 204 207 204 203 196 195 201 200 200 207 212 213 213 213 209 210 209
220 244 240 191 216 245 257 239 256 289 328 346 351 345 0 29 63 58 45 39 32 34 22 8 13 20 22 312 227 216 211 202 202 198 177 166 151 275 223 220 221 214 212 212
237 248 206 205 229 203 267 243 225 315 8 313 20 309 284 276 69 58 42 36 34 30 28 19 15 13 7 345 324 243 213 207 202 185 186 195 208 224 225 224 226 220 214 217
264 214 197 220 228 191 236 287 256 223 92 320 313 195 278 242 198 205 178 95 51 38 38 27 18 15 10 7 17 15 96 209 200 196 203 209 227 238 243 234 234 232 225 223
247 250 214 209 165 147 53 45 49 50 63 318 249 173 271 221 204 189 192 190 136 53 37 23 14 20 15 14 22 26 28 317 219 210 216 222 235 245 252 247 244 242 237 231
295 262 237 136 123 61 71 65 14 350 2 270 282 222 253 251 200 171 173 183 191 133 39 17 24 22 15 14 10 8 7 330 289 234 233 233 240 245 249 252 250 249 248 242
270 281 231 197 185 183 178 135 156 231 258 292 318 257 271 323 92 117 140 165 181 189 252 350 18 17 1 4 5 355 342 316 304 272 258 250 247 248 254 254 251 252 253 251
193 259 38 154 198 161 158 170 170 140 256 278 290 296 322 35 71 100 139 171 198 212 223 301 352 360 350 349 343 329 318 306 300 286 277 272 261 251 256 262 259 259 260 260
160 228 280 36 66 28 146 145 103 130 204 273 294 287 236 205 204 189 200 207 218 226 243 266 304 323 332 328 323 323 304 288 287 287 277 272 271 264 262 268 268 264 265 264
132 171 270 340 205 205 162 179 151 143 163 176 264 274 233 203 194 189 210 217 222 233 251 276 300 319 326 327 325 318 312 304 300 294 286 284 282 281 279 272 269 268 270 269
128 124 235 259 250 210 184 185 152 165 226 190 199 267 280 171 172 181 201 222 240 258 277 293 307 325 328 323 319 315 309 303 295 293 293 289 287 290 287 279 276 274 271 270
130 116 21 338 325 31 206 188 174 149 147 181 196 259 275 121 139 153 161 194 295 315 324 332 335 326 316 310 308 307 304 298 296 299 300 299 296 293 287 283 281 279 275 274
113 139 178 210 211 197 245 239 206 169 195 227 224 246 272 287 293 194 92 18 355 349 349 344 328 314 307 303 301 301 302 301 303 305 303 299 294 290 286 284 283 280 277 276
115 178 224 244 244 233 239 246 234 217 212 226 241 242 257 261 224 165 78 22 30 13 353 333 317 306 305 305 304 304 304 305 307 307 305 298 295 294 292 289 286 282 279 276
118 163 201 279 277 279 274 260 247 237 226 232 254 268 270 121 118 98 52 51 26 342 321 314 309 308 307 306 305 308 306 305 308 306 301 298 299 299 296 292 288 285 281 278
151 146 151 263 307 345 280 254 232 223 220 205 225 229 126 102 93 81 117 81 330 305 300 302 303 300 300 300 302 303 299 304 307 302 299 299 299 298 294 292 290 286 283 279
149 147 154 210 358 250 246 241 225 216 266 135 121 116 125 166 246 222 173 207 298 294 296 299 299 299 299 300 302 300 301 305 304 301 298 298 298 295 293 291 289 287 282 280
157 147 147 157 223 275 289 281 215 169 160 106 129 139 169 257 312 284 217 263 279 285 288 286 288 288 295 300 301 304 305 305 302 300 297 296 294 295 295 293 290 287 285 284
70 130 140 154 196 245 253 265 305 88 213 200 142 151 193 79 349 277 271 302 297 298 296 296 301 301 304 304 307 308 306 305 302 299 296 294 292 293 294 293 292 290 286 285
122 138 167 174 217 260 254 255 130 192 235 171 153 171 192 208 228 250 281 285 282 287 290 297 302 301 298 301 307 304 303 300 298 296 295 293 291 290 292 292 291 292 291 289
170 166 181 163 200 251 249 145 163 196 158 155 179 213 235 243 258 271 277 278 288 294 297 301 301 299 298 300 303 302 301 299 299 297 295 294 292 291 296 294 295 292 291 292
192 187 181 190 209 230 119 128 137 142 153 188 218 240 247 257 266 276 278 284 288 290 292 294 295 297 297 295 293 296 300 302 303 301 297 295 294 290 289 291 295 296 292 291
245 168 162 224 254 177 135 127 132 161 185 217 233 248 250 261 273 280 281 285 289 291 294 295 299 301 304 302 294 286 294 300 301 301 300 298 298 298 293 288 288 291 292 291
224 164 176 239 253 137 161 182 194 197 201 221 249 250 255 265 276 277 282 286 286 289 289 290 292 296 300 303 301 295 294 298 299 299 298 298 295 296 298 293 288 291 282 284
204 183 185 226 221 183 209 200 188 180 242 267 277 285 279 265 272 281 281 280 283 288 291 294 293 294 299 302 302 303 300 296 298 303 303 300 298 297 297 299 299 294 293 296